Find Starlink 32454

NORAD ID: 62142 Int'l Des: 2024-224 Owner: SPXS Country: US Constellation: starlink operational
LEOCIRCULAR

Current View

Loading 3D Globe...

About Starlink 32454

Starlink 32454 (NORAD 62142) is a starlink constellation satellite (v2 mini) launched Nov 30, 2024 by SPXS of US. It operates in LEO, CIRCULAR orbit with a mass of 730.00 kg.

About Starlink 32454

Description loading...

Upcoming Passes

Passes for default location (London). Set your location on the main map for personalized predictions.

Altitude History

Loading altitude history...

Two-Line Element Set

1 62142U 24224D 26166.18537475 .00012385 00000-0 45860-3 0 9995
2 62142 43.0029 335.0316 0000724 291.6170 68.4605 15.27594891 87303
Epoch: Jun 15, 2026 • Age: 26 hours

Current Status

Altitude 482.6 km
Velocity 7.63 km/s
Sub-Earth Point 18.67°N, 130.02°E
Launch Date Nov 30, 2024
Age 1.5 years
Type internet

Technical Details

Classification Payload
Mass 730.00 kg
Dry Mass 700.00 kg
Total Mass 730.00 kg
Length 0.30 m
Diameter 4.10 m
Span 29.00 m
Shape Box + pan
Manufacturer SPXS
Bus Type Starlink V2M
Phase Status In Orbit
Owner/State SPXS/US

Most Searched